Volver al catálogo

STARLINK-11460

ActivoComunicacionesVLEO
NORAD 62069·PAYLOAD·🇺🇸 United States

Lanzado Nov 24, 2024 desde Vandenberg Space Force Base

Loading…

Próximos Pases (próximas 24 horas)

TLE

ActualizadoSource: CelesTrak SupGP

Época: Sep 14, 2026, 21:10 UTC

1 62069C 24217N   26257.88243056  .00044358  00000+0  36530-3 0  2577
2 62069  53.1576 218.9002 0001313 101.5273 282.5116 15.69692589    17

Sigue STARLINK-11460 en tiempo real con AllMySat

Download on the App Store